Fredericksburg, VA

4:33 PM EST on December 09, 2019 (GMT -0500)
Shannon

Weather History for KEZF - October, 2019

Change the Weather History Date:

Tuesday, October 1, 2019

  Actual Average (WUND) Record (WUND)
Temperature  
Mean Temperature 78 °F -  
Max Temperature 88 °F - - (-1)
Min Temperature 67 °F - - (-1)
Cooling Degree Days 12    
Growing Degree Days 28 (Base 50)    
Moisture  
Dew Point 68 °F    
Average Humidity 79    
Maximum Humidity 95    
Minimum Humidity 55    
Precipitation  
Precipitation 0.00 in - - ()
Sea Level Pressure  
Sea Level Pressure 30.08 in    
Wind  
Wind Speed 2 mph ()    
Max Wind Speed 8 mph    
Max Gust Speed -    
Visibility 10.0 miles    
Events      
Averages and records for this station are not official NWS values.
T = Trace of Precipitation, MM = Missing Value Source: Averaged Metar Reports

Daily Weather History Graph

Daily Weather History Graph

Search for Another Location

Airport or City:

Astronomy

Oct. 01, 2019 Rise Set
Actual Time 7:05 AM EDT 6:53 PM EDT
Civil Twilight 6:38 AM EDT 7:19 PM EDT
Nautical Twilight 6:08 AM EDT 7:49 PM EDT
Astronomical Twilight 5:37 AM EDT 8:20 PM EDT
Moon 10:16 AM EDT (10/1) 9:07 PM EDT (10/1)
Length of Visible Light 12h 40m
Length of Day
11h 47m
Waxing Crescent, 12% of the Moon is Illuminated
Oct 1
Waxing Crescent
Oct 5
First Quarter
Oct 13
Full
Oct 21
Last Quarter
Oct 27
New

Hourly Weather History & Observations

Time (EDT) Temp. Heat Index Dew Point Humidity Pressure Visibility Wind Dir Wind Speed Gust Speed Precip Events Conditions
12:15 AM 68.9 °F - 65.7 °F 89% 30.18 in 10.0 mi Calm Calm - N/A   Overcast
12:35 AM 68.9 °F - 65.7 °F 89% 30.17 in 10.0 mi Calm Calm - N/A   Overcast
12:55 AM 68.5 °F - 65.8 °F 91% 30.17 in 10.0 mi Calm Calm - N/A   Overcast
1:15 AM 68.0 °F - 66.2 °F 94% 30.16 in 10.0 mi Calm Calm - N/A   Overcast
1:35 AM 68.5 °F - 65.7 °F 90% 30.16 in 10.0 mi Calm Calm - N/A   Overcast
1:55 AM 68.4 °F - 65.1 °F 89% 30.16 in 10.0 mi Calm Calm - N/A   Overcast
2:15 AM 68.5 °F - 64.6 °F 87% 30.16 in 10.0 mi Calm Calm - N/A   Overcast
2:55 AM 68.4 °F - 65.3 °F 90% 30.15 in 10.0 mi Calm Calm - N/A   Overcast
3:15 AM 68.2 °F - 65.3 °F 90% 30.15 in 10.0 mi Calm Calm - N/A   Overcast
3:35 AM 67.8 °F - 66.2 °F 95% 30.14 in 10.0 mi Calm Calm - N/A   Overcast
3:55 AM 68.0 °F - 65.3 °F 91% 30.14 in 10.0 mi Calm Calm - N/A   Overcast
4:15 AM 68.2 °F - 64.9 °F 89% 30.14 in 10.0 mi Calm Calm - N/A   Overcast
4:35 AM 68.0 °F - 65.3 °F 91% 30.14 in 10.0 mi SE 3.5 mph - N/A   Overcast
4:55 AM 68.0 °F - 65.3 °F 91% 30.15 in 10.0 mi Calm Calm - N/A   Overcast
5:15 AM 68.0 °F - 65.5 °F 92% 30.15 in 10.0 mi Calm Calm - N/A   Overcast
5:35 AM 67.6 °F - 65.5 °F 93% 30.15 in 10.0 mi Calm Calm - N/A   Overcast
5:55 AM 67.6 °F - 65.7 °F 93% 30.16 in 10.0 mi Calm Calm - N/A   Overcast
6:15 AM 67.5 °F - 65.5 °F 93% 30.15 in 10.0 mi SSE 3.5 mph - N/A   Overcast
6:35 AM 67.5 °F - 65.7 °F 94% 30.15 in 10.0 mi South 3.5 mph - N/A   Overcast
6:55 AM 67.3 °F - 65.5 °F 94% 30.15 in 10.0 mi Calm Calm - N/A   Overcast
7:15 AM 67.5 °F - 65.5 °F 93% 30.16 in 10.0 mi Calm Calm - N/A   Overcast
7:35 AM 67.8 °F - 65.7 °F 93% 30.16 in 10.0 mi Calm Calm - N/A   Overcast
7:55 AM 68.0 °F - 65.8 °F 93% 30.16 in 10.0 mi Calm Calm - N/A   Overcast
8:15 AM 68.4 °F - 65.7 °F 91% 30.15 in 10.0 mi Calm Calm - N/A   Overcast
8:35 AM 68.9 °F - 65.7 °F 89% 30.15 in 10.0 mi SSE 3.5 mph - N/A   Overcast
8:55 AM 70.3 °F - 65.5 °F 85% 30.14 in 10.0 mi South 3.5 mph - N/A   Overcast
9:15 AM 71.6 °F - 64.6 °F 78% 30.14 in 10.0 mi South 8.1 mph - N/A   Overcast
9:35 AM 72.7 °F - 64.8 °F 76% 30.14 in 10.0 mi SSW 8.1 mph - N/A   Scattered Clouds
9:55 AM 73.6 °F - 65.3 °F 75% 30.14 in 10.0 mi SSW 6.9 mph - N/A   Clear
10:15 AM 74.8 °F - 65.7 °F 73% 30.14 in 10.0 mi SW 6.9 mph - N/A   Clear
10:35 AM 75.7 °F - 66.4 °F 73% 30.14 in 10.0 mi South 3.5 mph - N/A   Clear
10:55 AM 76.6 °F - 66.6 °F 71% 30.14 in 10.0 mi SSW 4.6 mph - N/A   Clear
11:15 AM 77.4 °F - 67.1 °F 71% 30.13 in 10.0 mi South 4.6 mph - N/A   Clear
11:35 AM 78.8 °F - 67.8 °F 69% 30.12 in 10.0 mi SW 6.9 mph - N/A   Clear
11:55 AM 79.5 °F - 68.2 °F 68% 30.12 in 10.0 mi SSW 8.1 mph - N/A   Clear
12:15 PM 80.2 °F 83.0 °F 68.4 °F 67% 30.10 in 10.0 mi WSW 4.6 mph - N/A   Clear
12:35 PM 81.9 °F 85.2 °F 69.3 °F 65% 30.09 in 10.0 mi WSW 4.6 mph - N/A   Clear
12:55 PM 82.4 °F 86.1 °F 69.4 °F 65% 30.09 in 10.0 mi SSW 8.1 mph - N/A   Clear
1:15 PM 83.8 °F 87.8 °F 69.6 °F 62% 30.07 in 10.0 mi South 4.6 mph - N/A   Clear
2:15 PM 86.0 °F 91.1 °F 70.5 °F 60% 30.05 in 10.0 mi SSW 5.8 mph - N/A   Clear
2:35 PM 86.4 °F 91.4 °F 70.5 °F 59% 30.04 in 10.0 mi SSE 6.9 mph - N/A   Clear
2:55 PM 86.5 °F 91.8 °F 70.7 °F 59% 30.04 in 10.0 mi SSW 8.1 mph - N/A   Clear
3:15 PM 87.4 °F 93.1 °F 71.1 °F 58% 30.03 in 10.0 mi SSW 4.6 mph - N/A   Clear
3:35 PM 87.8 °F 93.8 °F 71.2 °F 58% 30.02 in 10.0 mi South 6.9 mph - N/A   Clear
3:55 PM 88.0 °F 93.8 °F 71.1 °F 57% 30.02 in 10.0 mi SSW 6.9 mph - N/A   Clear
4:15 PM 88.9 °F 94.7 °F 71.1 °F 55% 30.02 in 10.0 mi South 8.1 mph - N/A   Clear
4:35 PM 88.7 °F 94.8 °F 71.4 °F 56% 30.01 in 10.0 mi SW 6.9 mph - N/A   Clear
4:55 PM 88.7 °F 94.8 °F 71.2 °F 56% 30.00 in 10.0 mi SSW 8.1 mph - N/A   Clear
5:55 PM 86.7 °F 92.5 °F 71.2 °F 60% 30.00 in 10.0 mi SSW 4.6 mph - N/A   Clear
6:15 PM 86.2 °F 91.8 °F 71.4 °F 61% 30.00 in 10.0 mi SSW 5.8 mph - N/A   Clear
6:35 PM 85.1 °F 90.4 °F 71.2 °F 63% 30.00 in 10.0 mi Calm Calm - N/A   Clear
6:55 PM 82.2 °F 87.6 °F 72.9 °F 73% 30.00 in 10.0 mi Calm Calm - N/A   Clear
7:15 PM 79.7 °F - 73.0 °F 80% 30.00 in 10.0 mi Calm Calm - N/A   Scattered Clouds
7:35 PM 77.7 °F - 72.7 °F 84% 29.99 in 10.0 mi Calm Calm - N/A   Scattered Clouds
7:55 PM 77.0 °F - 72.1 °F 85% 29.99 in 10.0 mi Calm Calm - N/A   Mostly Cloudy
8:15 PM 76.6 °F - 72.3 °F 86% 29.99 in 10.0 mi SE 4.6 mph - N/A   Scattered Clouds
8:35 PM 76.1 °F - 71.8 °F 86% 29.99 in 10.0 mi SSE 5.8 mph - N/A   Clear
8:55 PM 78.1 °F - 71.1 °F 79% 29.99 in 10.0 mi SSE 4.6 mph - N/A   Clear
9:15 PM 77.9 °F - 70.7 °F 78% 29.99 in 10.0 mi South 5.8 mph - N/A   Clear
9:35 PM 77.0 °F - 70.2 °F 79% 29.99 in 10.0 mi South 4.6 mph - N/A   Clear
9:55 PM 77.4 °F - 70.3 °F 79% 29.99 in 10.0 mi South 3.5 mph - N/A   Clear
10:15 PM 76.8 °F - 70.2 °F 80% 30.00 in 10.0 mi Calm Calm - N/A   Clear
10:35 PM 76.5 °F - 70.2 °F 81% 29.99 in 10.0 mi South 5.8 mph - N/A   Clear
10:55 PM 75.2 °F - 70.0 °F 84% 29.99 in 10.0 mi South 4.6 mph - N/A   Clear
11:15 PM 75.0 °F - 70.0 °F 84% 29.99 in 10.0 mi South 5.8 mph - N/A   Clear
11:35 PM 75.2 °F - 70.0 °F 84% 29.98 in 10.0 mi South 4.6 mph - N/A   Clear
11:55 PM 75.2 °F - 70.2 °F 84% 29.98 in 10.0 mi South 3.5 mph - N/A   Clear